This is the latest recevied weather packets stored in our database for station/object W5ADC. If no packets are shown the sender has not sent any weather packets the latest 10 day(s).
| Time | Temp. | Humidity | Pressure | Rain* | Wind** | Luminosity | Snow |
|---|---|---|---|---|---|---|---|
| 1777757617 | 24.44° C | 33% | 1015.6 hPa | 0 mm | - | 106 W/m² | - |
| 1777757316 | 23.89° C | 33% | 1015.5 hPa | 0 mm | - | 524 W/m² | - |
| 1777757014 | 23.89° C | 33% | 1015.7 hPa | 0 mm | - | 188 W/m² | - |
| 1777756711 | 24.44° C | 33% | 1015.5 hPa | 0 mm | - | 551 W/m² | - |
| 1777756406 | 24.44° C | 32% | 1015.7 hPa | 0 mm | - | 567 W/m² | - |
| 1777756104 | 23.89° C | 34% | 1015.7 hPa | 0 mm | - | 578 W/m² | - |
| 1777755801 | 24.44° C | 32% | 1015.7 hPa | 0 mm | - | 590 W/m² | - |
| 1777755498 | 24.44° C | 34% | 1016.2 hPa | 0 mm | - | 612 W/m² | - |
| 1777755194 | 23.89° C | 33% | 1016.1 hPa | 0 mm | - | 623 W/m² | - |
| 1777754892 | 23.89° C | 34% | 1016.1 hPa | 0 mm | - | 634 W/m² | - |
| 1777754589 | 24.44° C | 32% | 1015.9 hPa | 0 mm | - | 649 W/m² | - |
| 1777754286 | 23.89° C | 33% | 1016.5 hPa | 0 mm | - | 661 W/m² | - |
| 1777753984 | 23.89° C | 32% | 1016.2 hPa | 0 mm | - | 672 W/m² | - |
| 1777753683 | 24.44° C | 33% | 1016.3 hPa | 0 mm | - | 679 W/m² | - |
| 1777753382 | 23.89° C | 34% | 1016.6 hPa | 0 mm | - | 684 W/m² | - |
| 1777753079 | 24.44° C | 34% | 1016.3 hPa | 0 mm | - | 699 W/m² | - |
| 1777752775 | 24.44° C | 32% | 1016.5 hPa | 0 mm | - | 707 W/m² | - |
| 1777752471 | 23.89° C | 32% | 1016.3 hPa | 0 mm | - | 717 W/m² | - |
| 1777752167 | 23.89° C | 34% | 1016.8 hPa | 0 mm | - | 725 W/m² | - |
| 1777751866 | 23.89° C | 34% | 1016.8 hPa | 0 mm | - | 736 W/m² | - |
| 1777751562 | 23.89° C | 34% | 1016.9 hPa | 0 mm | - | 741 W/m² | - |
| 1777751258 | 23.89° C | 35% | 1016.9 hPa | 0 mm | - | 749 W/m² | - |
| 1777750956 | 23.33° C | 34% | 1016.8 hPa | 0 mm | - | 758 W/m² | - |
| 1777750651 | 23.89° C | 35% | 1017 hPa | 0 mm | - | 765 W/m² | - |
| 1777750349 | 23.89° C | 33% | 1016.9 hPa | 0 mm | - | 770 W/m² | - |
* Rain latest hour (hover to see other rain measurements)
** Current wind speed in m/s (hover to see current wind gust speed)